GOES 16

Last updated on Fri Oct 11 2024 00:02:17 GMT+0000 (Coordinated Universal Time)

1 41866U 16071A 24284.53135885 -.00000244 00000+0 00000+0 0 9997 2 41866 0.0604 287.8520 0000485 336.9953 230.8885 1.00270952 28947
UTC large
Height (km)
Speed (km/s)
/
Latitude / Longitude
Inclination (degrees)
Orbital Period (minutes)
Azimuth
Elevation
Range (km)
Doppler Factor

Next 0 passes for location: London (51.5072 / 0.1276)

Sorry there are no passes over London.